Regional Weather Roundup
Issued by NWS

Home | Current Version | Previous Version | Graphics & Text | Print | Product List | Glossary Off
Versions: 1 2 3 4 5 6 7 8 9 10 11 12 13 14 15 16 17 18 19 20 21 22 23 24 25 26 27 28 29 30 31 32 33 34 35 36 37 38 39 40 41 42 43 44 45 46 47 48 49 50

000
ASUS43 KMKX 241300
RWRWI

WISCONSIN REGIONAL WEATHER ROUNDUP
NATIONAL WEATHER SERVICE MILWAUKEE/SULLIVAN WI
800 AM CDT WED AUG 24 2016

NOTE: "FAIR" INDICATES FEW OR NO CLOUDS BELOW 12,000 FEET WITH NO
SIGNIFICANT WEATHER AND/OR OBSTRUCTIONS TO VISIBILITY.

WIZ001-002-006>008-014>016-023>028-241400-
NORTHWEST WISCONSIN

CITY           SKY/WX    TMP DP  RH WIND       PRES   REMARKS
SUPERIOR ARPT  CLOUDY    66  65  99 CALM      29.80S
ASHLAND        CLOUDY    68  66  93 CALM      29.82R
HAYWARD        CLOUDY    67  65  93 CALM      29.82S
SIREN          CLOUDY    66  65  97 W3        29.84R
CUMBERLAND     CLOUDY    64  64 100 W7        29.84R
RICE LAKE      CLOUDY    67  66  94 SW7       29.84R
CHETEK         NOT AVBL
LADYSMITH      CLOUDY    67  65  96 S8        29.85R FOG
EAU CLAIRE     NOT AVBL
MENOMONIE      CLOUDY    68  67  99 CALM      29.85R
NEW RICHMOND   CLOUDY    67  67 100 W6        29.85R FOG
OSCEOLA        CLOUDY    67  67 100 W7        29.87R
$$

WIZ003>005-009-010-017-018-241400-
NORTH CENTRAL WISCONSIN

CITY           SKY/WX    TMP DP  RH WIND       PRES   REMARKS
MANITOWISH WTR NOT AVBL
ARBOR VITAE    HVY RAIN  65  64  95 S5        29.85R
WOODRUFF       HVY RAIN  65  64  95 S5        29.85R
RHINELANDER    CLOUDY    66  66 100 S5        29.86S
EAGLE RIVER    CLOUDY    65  65 100 CALM      29.85F
LAND O LAKES   CLOUDY    65  64  99 S5        29.87S
PHILLIPS       DRIZZLE   65  65 100 SW5       29.82F
TOMAHAWK       CLOUDY    65  64  96 S3        29.84F FOG
MEDFORD        CLOUDY    65  65 100 S9        29.86R
MERRILL        CLOUDY    66  66 100 S6        29.86S
$$

WIZ029-030-035-036-043>047-241400-
CENTRAL WISCONSIN

CITY           SKY/WX    TMP DP  RH WIND       PRES   REMARKS
WAUSAU         LGT RAIN  67  66  97 S8        29.85R
MOSINEE        CLOUDY    66  66 100 S8        29.87S
MARSHFIELD     CLOUDY    68  64  87 S7        29.85F
STEVENS POINT  CLOUDY    66  66 100 S7        29.87F
WAUPACA        CLOUDY    71  71  99 S5        29.88S FOG
WAUTOMA        LGT RAIN  68  66  93 S9        29.90S
WISC RAPIDS    CLOUDY    68  67  96 S7        29.89S
CAMP DOUGLAS   CLOUDY    66  66 100 SE7       29.88R
$$

WIZ011>013-019>022-031-037>040-048>050-241400-
NORTHEAST WISCONSIN

CITY           SKY/WX    TMP DP  RH WIND       PRES   REMARKS
ANTIGO         CLOUDY    65  65 100 CALM      29.88S
SHAWANO        LGT RAIN  69  67  94 SW5       29.88R
OCONTO         NOT AVBL
STURGEON BAY   LGT RAIN  67  66  97 S8        29.88F FOG
GREEN BAY      CLOUDY    70  70 100 SW7       29.87S
MANITOWOC      NOT AVBL
APPLETON       DRIZZLE   70  70 100 SW10      29.88R FOG
CLINTONVILLE   CLOUDY    68  68 100 SW6       29.88R FOG
OSHKOSH        CLOUDY    69  66  90 SW15G23   29.89R
$$

WIZ032>034-041-042-053>061-241400-
SOUTHWEST WISCONSIN

CITY           SKY/WX    TMP DP  RH WIND       PRES   REMARKS
LA CROSSE      CLOUDY    70  32  24 S10       29.86R
SPARTA         CLOUDY    65  64  98 CALM      29.88R
VIROQUA        CLOUDY    65  65 100 S9        29.90R
BOSCOBEL       CLOUDY    68  66  93 SW5       29.91R
PRAIRIE DU CHI CLOUDY    66  65  96 CALM      29.89R
PLATTEVILLE    CLOUDY    67  67 100 SE14      29.94R
$$

WIZ056-057-062-063-064-067-068-241400-
SOUTH CENTRAL WISCONSIN

CITY           SKY/WX    TMP DP  RH WIND       PRES   REMARKS
REEDSBURG      NOT AVBL
BARABOO/DELLS  LGT RAIN  65  63  93 SE6       29.90S
LONE ROCK      NOT AVBL
MINERAL POINT  LGT RAIN  66  66 100 S8        29.93R
MADISON        LGT RAIN  67  65  93 S15       29.92F
MIDDLETON      CLOUDY    67  67  99 S7G16     29.93F
WATERTOWN      LGT RAIN  67  67 100 SW10      29.98R
MONROE         DRIZZLE   64  64 100 E7        29.98F
JANESVILLE     RAIN      68  66  94 CALM      29.99F FOG
$$

WIZ051-052-058>065-066-070>072-241400-
SOUTHEAST WISCONSIN

CITY           SKY/WX    TMP DP  RH WIND       PRES   REMARKS
MILWAUKEE      RAIN      73  69  87 SW18G26   29.98R FOG
WAUKESHA       LGT RAIN  66  64  94 SW12G25   30.00  FOG
MILWAUKEE/TIMM RAIN      70  66  88 SW16G25   29.98R
RACINE         LGT RAIN  74  68  81 SW12      30.00R
BURLINGTON     RAIN      69  67  93 SW13G23   30.00R
KENOSHA        LGT RAIN  73  69  87 SW14G24   30.00R
FOND DU LAC    LGT RAIN  70  68  93 SW15G26   29.92R
SHEBOYGAN      LGT RAIN  72  68  87 SW20      29.92R
WEST BEND      RAIN      70  68  94 SW12G17   29.95R
JUNEAU         LGT RAIN  67  65  95 S16       29.97R
$$

LSZ147-162-241400-
LAKE SUPERIOR

STATION/POSITION TIME  TEMP    WIND        PRES    WAVE
                       AIR SEA DIR/SP/G            HT/PER
                 (UTC) (F)     (DEG/KT/KT) (MB)    (FT/S)
W MID LAKE BUOY  1150   69 68  160/  6/  8 1008.8F   1/ 4
DEVILS ISLAND    1200   69     200/  2/  2 1009.2F
PORT WING        1200   65     170/  1/  3 1009.5S
SAXON HARBOR     1200   69     190/  2/  5 1009.1
$$

LMZ867-665-643>646-241400-
LAKE MICHIGAN

STATION/POSITION TIME  TEMP    WIND        PRES    WAVE
                       AIR SEA DIR/SP/G            HT/PER
                 (UTC) (F)     (DEG/KT/KT) (MB)    (FT/S)
CHAMBERS ISLAND  1200   68     130/  6/ 10 1011.9F
S GREEN BAY BUOY 1130   68 73  140/ 14/ 16 1010.8F
N MID LAKE BUOY  1150   68 71  190/ 14/ 17 1012.5F   6/ 6
NORTHPORT PIER   1200   68     150/  8/ 11 1012.2F
SISTER BAY       1107   67     190/  9/ 11   N/A
KEWAUNEE LAKESHO 1200   62     170/ 10/ 12 1011.3F
SHEBOYGAN LAKESH 1200   63     180/ 25/ 26 1011.6F
PORT WASHINGTON  1200   62     190/  8/ 12 1014.2
ATWATER BUOY     1200   61 51  160/ 12/ 16   N/A
MILWAUKEE LAKESH 1210   72     200/ 12/ 14   N/A
S MID LAKE BUOY  1150   74 74  170/ 23/ 29 1014.1F   5/ 6
KENOSHA   LAKESH 1200   65     180/ 10/ 14 1014.2F
$$

TC  - TEMPERATURE IN CELSIUS
VSB - VISIBILITY IN STATUTE MILES
WCI - WIND CHILL INDEX
HX  - HEAT INDEX





USA.gov is the U.S. government's official web portal to all federal, state and local government web resources and services.